全球星 M094星 (GLOBALSTAR M094)

导读 | 星芒AI

GLOBALSTAR M094 是 Globalstar 卫星通信公司运营的一颗低轨移动通信卫星,属于其第二代卫星星座(Globalstar 2)的一部分。该卫星运行在约1414公里高度的近极地轨道,用于提供全球范围的语音和数据通信服务,主要面向偏远地区和移动用户。M094 卫星采用先进通信技术,支持多种终端接入,增强了系统的可靠性和覆盖能力,是全球卫星通信网络的重要组成部分。

基本信息
目录编号:
39074
目录名称:
GLOBALSTAR M094
国际标识:
2013-005C
轨道中心:
EARTH
卫星名称:
全球星 M094星
卫星全名:
全球星 M094星 (GLOBALSTAR M094)
卫星状态:
在轨 (已飞行4696 天)
发射日期:
2013-02-06 UTC
国别 :
(GLOB)
星等 :
--
轨道信息
数据来源 国际轨道数据
星历时间: 2025-12-15T16:23:51+0800
16小时前
查看轨道信息
半长轴: 7791.746km
偏心率: 0.0000207
轨道倾角: 51.998°
近地点辐角 17.551°
升交点赤经 350.530°
平近点角 342.536°
近地点: 1413.449km
远地点: 1413.773km
周期: 114.081分钟
每日圈数: 12.622653
详细信息
固有亮度:
5
最大亮度:
7.2
平衡模式:
三轴稳定
覆盖范围:
全球
运营商:
全球星公司
运营商所在国:
美国
使用方式:
暂无
卫星简介
全球星星座由48颗卫星加8颗备份星组成。这些卫星分布在8个倾角为52度的圆形轨道平面上,每个轨道平面6颗卫星,另有1 颗备用星。轨道高度约为1414km,传输时延和处理时延小于300ms,整个系统的覆盖区为南北纬70度以内的地区。该卫星已退役。
2D轨道图
3D轨道图
轨道高度分析图
轨道倾角分析图
轨道综合分析图
查看轨道综合分析图